GRBBeta
1 60237U 24128C   26248.57883544  .00001517  00000-0  11406-3 0  9990
2 60237  61.9897 294.1050 0028994 152.2854 207.9791 15.07129493118387
Curium One
1 60242U 24128H   26248.59915765  .00003464  00000-0  20331-3 0  9999
2 60242  61.9779 280.7413 0027998 146.8603 213.4254 15.13527623118627
ROBUSTA-3A
1 60243U 24128J   26248.54444377  .00002960  00000-0  17974-3 0  9990
2 60243  61.9859 283.8627 0029936 144.0646 216.2471 15.12639347118571
CatSat
1 60246U 24125J   26248.56794250  .00078788  00000-0  65448-3 0  9990
2 60246  97.1984 102.7108 0014749 233.2599 126.7310 15.69788753119959
AO-123
1 61781U 24199AY  26248.80542510  .00004830  00000-0  13650-3 0  9998
2 61781  97.2873 116.7559 0014194  26.4043 333.7922 15.36724875146304
LASARsat
1 62391U 24247Q   26248.21025926  .00026889  00000-0  45094-3 0  9997
2 62391  44.9716 170.8637 0007790 137.7660 222.3833 15.51360300 95729
CroCube
1 62394U 24247T   26248.15436988  .00033079  00000-0  50040-3 0  9993
2 62394  44.9691 166.9364 0008340 148.4363 211.7032 15.54118972 95764
JINJUSat 1B
1 63210U 25052A   26248.67047905  .00011557  00000-0  33375-3 0  9999
2 63210  97.3880 145.6205 0004472 129.2405 230.9236 15.35816360 82443
NUSHSAT 1
1 63211U 25052B   26248.63350581  .00013362  00000-0  34875-3 0  9995
2 63211  97.3854 146.4626 0004132 128.6142 231.5474 15.38926884 82509
TEVEL2-4
1 63213U 25052D   26248.64055389  .00011824  00000-0  32626-3 0  9999
2 63213  97.3776 145.2687 0003399 136.5163 223.6350 15.37237750 82469
TEVEL2-5
1 63214U 25052E   26248.67123395  .00012787  00000-0  35508-3 0  9997
2 63214  97.3775 145.2221 0003243 138.3239 221.8253 15.37019957 82464
TEVEL2-6
1 63215U 25052F   26248.49006342  .00012470  00000-0  34675-3 0  9993
2 63215  97.3777 145.0253 0003195 139.6304 220.5178 15.36984701 82439
TEVEL2-1
1 63217U 25052H   26248.22383083  .00010914  00000-0  31012-3 0  9999
2 63217  97.3750 144.2808 0002808 150.2727 209.8677 15.36344369 82374
TEVEL2-3
1 63218U 25052J   26248.67097038  .00012636  00000-0  35762-3 0  9990
2 63218  97.3755 144.7633 0002709 147.2123 212.9289 15.36432450 82448
TEVEL2-2
1 63219U 25052K   26248.15840232  .00010818  00000-0  30729-3 0  9994
2 63219  97.3751 144.2197 0002841 152.5981 207.5413 15.36356554 82363
TEVEL2-9
1 63237U 25052AD  26248.50522069  .00010779  00000-0  32808-3 0  9994
2 63237  97.3811 143.7563 0005004 194.6047 165.5052 15.34173971 82332
TEVEL2-7
1 63238U 25052AE  26248.23693573  .00009487  00000-0  29240-3 0  9994
2 63238  97.3813 143.3663 0004835 196.5589 163.5496 15.33810358 82285
TEVEL2-8
1 63239U 25052AF  26248.70255331  .00010367  00000-0  31927-3 0  9997
2 63239  97.3814 143.8067 0004964 195.2228 164.8866 15.33810740 82357
SPIRONE
1 66657U 25274H   26248.77666248  .00000887  00000-0  88832-4 0  9994
2 66657  97.7474 176.9272 0013544 103.7559 256.5169 14.93815928 42258
K-HERO
1 66660U 25274L   26248.35762416  .00001315  00000-0  12781-3 0  9992
2 66660  97.7481 176.7331 0015421 109.2234 251.0656 14.94210824 42202
SNUGLITE-III DURI
1 66661U 25274M   26248.74589529  .00001224  00000-0  11924-3 0  9995
2 66661  97.7480 177.1368 0015970 109.2515 251.0435 14.94220805 42269
SAKHACUBE-CHOLBON
1 67290U 25313AU  26248.44529572  .00005527  00000-0  21630-3 0  9992
2 67290  97.3869 322.5230 0010458  76.5408 283.6995 15.26178873 38217
RS95S (QMR-KWT-2)
1 67291U 25313AV  26248.14763920  .00007794  00000-0  28612-3 0  9992
2 67291  97.3869 322.6062 0009817  75.7825 284.4505 15.28174446 38190
Ten-Koh2
1 68261U 25241B   26248.52415866  .00003234  00000-0  14211-3 0  9990
2 68261  51.6650 297.0128 0007706  49.3217 310.8430 15.24788431 27161
JACK-002
1 68417U 26067B   26248.41856340  .00004283  00000-0  20055-3 0  9992
2 68417  97.4643 206.1005 0002796  43.7684 316.3772 15.20259529 24130
DISCO 2
1 68431U 26067R   26248.45110222  .00005080  00000-0  23806-3 0  9997
2 68431  97.4676 206.1306 0004140  81.6549 278.5155 15.20139561 24139
HADES-SA (SpinnyONE)
1 68446U 26067AG  26247.59761519  .00010973  00000-0  48973-3 0  9997
2 68446  97.4466 204.8751 0007831 140.4162 219.7647 15.21522429 23992
PARUS-6U1
1 68456U 26067AS  26248.41628955  .00003500  00000-0  17418-3 0  9994
2 68456  97.4630 205.6210 0006774 131.7044 228.4771 15.18247081 24105
SAL-E
1 68458U 26067AU  26248.39135019  .00004073  00000-0  19915-3 0  9997
2 68458  97.4552 205.4993 0006824 138.7555 221.4196 15.18768315 24108
FSI-SAT 2
1 68792U 26088A   26248.35663684  .00003060  00000-0  20599-3 0  9996
2 68792  97.5178  35.6865 0014053 188.1557 171.9444 15.07375347 20365
OrigamiSat 2
1 68795U 26088D   26248.36926010  .00008112  00000-0  49702-3 0  9995
2 68795  97.5163  36.1273 0015119 160.0262 200.1562 15.10337320 20399
ARICA 2
1 68796U 26088E   26248.34688769  .00002654  00000-0  17154-3 0  9991
2 68796  97.5172  35.9893 0016019 158.8266 201.3629 15.08975162 20389
WASEDA-SAT-ZERO-II
1 68797U 26088F   26248.85536425  .00003152  00000-0  20049-3 0  9990
2 68797  97.5160  36.5325 0015839 156.7054 203.4896 15.09421681 20466
MANGARO-II-Piscus
1 68798U 26088G   26248.84610480  .00002236  00000-0  14381-3 0  9998
2 68798  97.5175  36.5642 0019319 160.6393 199.5574 15.09271607 20461
CO-128
1 69912U 26156AV  26248.68011841  .00000915  00000-0  98364-4 0  9997
2 69912  97.7487 148.0584 0001589 338.4061  21.7090 14.90922616  8994
MARINA
1 69920U 26156BD  26246.95610418  .00001332  00000-0  13645-3 0  9991
2 69920  97.7458 146.4496 0006685 331.7450  28.3405 14.92128142  8745
IO-86
1 40931U          26199.45381863  .00000000  00000-0  77536-4 0    07
2 40931   6.0006 322.6653 0012733 338.8432 273.6875 14.79294310    03
LILIUM-4                
1 71922C 26067AC  26089.50133053 -.00014632  00000+0 -74472-3 0    04
2 71922  97.4497  49.1617 0004341   5.9603 355.7042 15.16896692    16
